Change the Weather History Date:

Tuesday, August 12, 2014

  Actual Average (KCEW) Record (KCEW)
Temperature  
Mean Temperature 83 °F -  
Max Temperature 91 °F 92 °F 97 °F (1990)
Min Temperature 75 °F 68 °F 63 °F (1989)
Cooling Degree Days 18    
Growing Degree Days 33 (Base 50)    
Moisture  
Dew Point 73 °F    
Average Humidity 74    
Maximum Humidity 85    
Minimum Humidity 57    
Precipitation  
Precipitation 0.00 in - - ()
Sea Level Pressure  
Sea Level Pressure 29.93 in    
Wind  
Wind Speed 3 mph (NW)    
Max Wind Speed 10 mph    
Max Gust Speed -    
Visibility 10 miles    
Events Rain , Thunderstorm    
Averages and records for this station are not official NWS values.
T = Trace of Precipitation, MM = Missing Value Source: NWS Daily Summary

Daily Weather History Graph

Daily Weather History Graph

Search for Another Location

Airport or City:

Trip Planner

Search our weather history database for the weather conditions in past years. The results will help you decide how hot, cold, wet, or windy it might be!

Date:

Astronomy

Aug. 12, 2014 Rise Set
Actual Time 6:09 AM CDT 7:31 PM CDT
Civil Twilight 5:43 AM CDT 7:57 PM CDT
Nautical Twilight 5:12 AM CDT 8:27 PM CDT
Astronomical Twilight 4:40 AM CDT 8:59 PM CDT
Moon 8:52 PM CDT (8/12) 8:14 AM CDT (8/12)
Length of Visible Light 14h 13m
Length of Day
13h 22m
Waning Gibbous, 94% of the Moon is Illuminated
Aug 12
Waning Gibbous
Aug 17
Last Quarter
Aug 25
New
Sep 2
First Quarter
Sep 8
Full

Hourly Weather History & Observations

Time (CDT) Temp. Heat Index Dew Point Humidity Pressure Visibility Wind Dir Wind Speed Gust Speed Precip Events Conditions
12:56 AM 81.0 °F 86.2 °F 73.9 °F 79% 29.95 in 10.0 mi NNW 5.8 mph - N/A   Clear
1:56 AM 80.1 °F 84.2 °F 73.0 °F 79% 29.95 in 10.0 mi WNW 3.5 mph - N/A   Clear
2:56 AM 78.1 °F - 73.0 °F 84% 29.93 in 10.0 mi Calm Calm - N/A   Clear
3:56 AM 78.1 °F - 72.0 °F 81% 29.92 in 10.0 mi NW 3.5 mph - N/A   Clear
4:56 AM 77.0 °F - 71.1 °F 82% 29.92 in 10.0 mi Calm Calm - N/A   Partly Cloudy
5:56 AM 75.9 °F - 71.1 °F 85% 29.92 in 9.0 mi Calm Calm - N/A   Clear
6:56 AM 77.0 °F - 72.0 °F 84% 29.92 in 8.0 mi WNW 4.6 mph - N/A   Clear
7:56 AM 80.1 °F 83.8 °F 72.0 °F 76% 29.94 in 10.0 mi NW 6.9 mph - N/A   Clear
8:39 AM 82.4 °F 88.2 °F 73.4 °F 74% 29.95 in 10.0 mi North 6.9 mph - N/A   Mostly Cloudy
8:56 AM 84.0 °F 90.2 °F 73.0 °F 69% 29.94 in 10.0 mi North 4.6 mph - N/A   Mostly Cloudy
9:10 AM 82.4 °F 87.2 °F 71.6 °F 70% 29.95 in 10.0 mi Variable 3.5 mph - N/A   Partly Cloudy
9:56 AM 86.0 °F 93.0 °F 73.0 °F 65% 29.95 in 10.0 mi Calm Calm - N/A   Partly Cloudy
10:53 AM 89.6 °F 98.2 °F 73.4 °F 59% 29.96 in 10.0 mi WNW 3.5 mph - N/A   Mostly Cloudy
10:56 AM 89.1 °F 97.0 °F 73.0 °F 59% 29.95 in 10.0 mi West 4.6 mph - N/A   Mostly Cloudy
12:56 PM 91.0 °F 100.4 °F 73.9 °F 57% 29.94 in 10.0 mi Variable 6.9 mph - N/A   Clear
1:56 PM 89.1 °F 99.1 °F 75.0 °F 63% 29.92 in 10.0 mi NE 3.5 mph - N/A   Overcast
2:15 PM 87.8 °F 95.6 °F 73.4 °F 62% 29.91 in 10.0 mi Calm Calm - 0.00 in Rain , Thunderstorm Light Thunderstorms and Rain
2:56 PM 84.0 °F 90.2 °F 73.0 °F 69% 29.91 in 10.0 mi NNW 10.4 mph - 0.00 in Rain , Thunderstorm Light Thunderstorms and Rain
3:29 PM 82.4 °F 87.2 °F 71.6 °F 70% 29.92 in 10.0 mi NNE 5.8 mph - N/A   Mostly Cloudy
3:56 PM 82.9 °F 88.0 °F 72.0 °F 69% 29.89 in 10.0 mi WNW 3.5 mph - N/A Thunderstorm Thunderstorm
4:12 PM 82.4 °F 88.2 °F 73.4 °F 74% 29.91 in 10.0 mi SW 3.5 mph - N/A   Partly Cloudy
4:56 PM 82.0 °F 86.3 °F 71.1 °F 69% 29.90 in 10.0 mi Calm Calm - N/A   Partly Cloudy
5:56 PM 81.0 °F 85.8 °F 73.0 °F 77% 29.90 in 10.0 mi WNW 5.8 mph - N/A   Partly Cloudy
6:56 PM 81.0 °F 85.8 °F 73.0 °F 77% 29.89 in 10.0 mi Calm Calm - N/A   Mostly Cloudy
7:56 PM 79.0 °F - 73.0 °F 82% 29.89 in 10.0 mi SW 3.5 mph - N/A   Clear
8:56 PM 79.0 °F - 72.0 °F 79% 29.91 in 10.0 mi Calm Calm - N/A   Partly Cloudy
9:56 PM 77.0 °F - 72.0 °F 84% 29.93 in 10.0 mi Calm Calm - N/A   Partly Cloudy
10:56 PM 77.0 °F - 72.0 °F 84% 29.93 in 10.0 mi Calm Calm - N/A   Partly Cloudy
11:56 PM 75.9 °F - 71.1 °F 85% 29.93 in 10.0 mi Calm Calm - N/A   Clear